User: anonymous   Login
Location: Seminole
(32.7190°N, 102.6440°W)
Time: 10:38:19
(UTC-06:00)
Language:

Meteor 2-10 - Orbit

View from above orbital plane
View from above orbital plane
View from above satellite
View from above satellite

Ground track
Ground track

The orbit data is extracted from the following two-line orbital elements,

1 14452U 83109A   15031.12778879  .00000116  00000-0  41053-4 0  7102
2 14452 081.1595 232.4239 0090806 019.5021 340.9595 14.26306146625273
Epoch (UTC): 31 January 2015 03:04:00
Eccentricity: 0.0090806
inclination: 81.1595°
perigee height: 739 km
apogee height: 869 km
right ascension of ascending node: 232.4239°
argument of perigee: 19.5021°
revolutions per day: 14.26306146
mean anomaly at epoch: 340.9595°
orbit number at epoch: 62527

The dashed part of the orbit path shows where the satellite is in the earth's shadow,  

DLR